Time,TemperatureF,DewpointF,PressureIn,WindDirection,WindDirectionDegrees,WindSpeedMPH,WindSpeedGustMPH,Humidity,HourlyPrecipIn,Conditions,Clouds,dailyrainin,SoftwareType,DateUTC
2013-04-15 00:03:00,57.0,31.0,28.98,ESE,112,0.0,0.0,37,0.00,,,0.00,,2013-04-15 04:03:00,
2013-04-15 00:13:00,57.0,31.0,28.98,ESE,112,0.0,0.0,37,0.00,,,0.00,,2013-04-15 04:13:00,
2013-04-15 00:23:00,57.0,31.0,28.98,ENE,67,0.0,0.0,37,0.00,,,0.00,,2013-04-15 04:23:00,
2013-04-15 00:33:00,57.0,31.0,28.98,ESE,112,0.0,0.0,37,0.00,,,0.00,,2013-04-15 04:33:00,
2013-04-15 00:43:00,57.0,31.0,28.98,ESE,112,0.0,0.0,37,0.00,,,0.00,,2013-04-15 04:43:00,
2013-04-15 00:53:00,57.0,31.0,28.98,SSE,157,0.0,0.0,37,0.00,,,0.00,,2013-04-15 04:53:00,
2013-04-15 01:03:00,57.0,31.0,28.95,ESE,112,0.0,0.0,37,0.00,,,0.00,,2013-04-15 05:03:00,
2013-04-15 01:13:00,57.0,31.0,28.95,ESE,112,0.0,0.0,37,0.00,,,0.00,,2013-04-15 05:13:00,
2013-04-15 01:23:00,57.0,31.0,28.96,ESE,112,0.0,0.0,37,0.00,,,0.00,,2013-04-15 05:23:00,
2013-04-15 01:33:00,56.0,30.0,28.95,ESE,112,0.0,0.0,37,0.00,,,0.00,,2013-04-15 05:33:00,
2013-04-15 01:42:00,56.0,30.0,28.95,ESE,112,0.0,0.0,37,0.00,,,0.00,,2013-04-15 05:42:00,
2013-04-15 01:52:00,56.0,30.0,28.95,ESE,112,0.0,0.0,37,0.00,,,0.00,,2013-04-15 05:52:00,
2013-04-15 02:02:00,56.0,31.0,28.95,ESE,112,0.0,0.0,38,0.00,,,0.00,,2013-04-15 06:02:00,
2013-04-15 02:12:00,56.0,31.0,28.95,ESE,112,0.0,0.0,38,0.00,,,0.00,,2013-04-15 06:12:00,
2013-04-15 02:23:00,56.0,31.0,28.96,ESE,112,0.0,0.0,38,0.00,,,0.00,,2013-04-15 06:23:00,
2013-04-15 02:33:00,55.0,30.0,28.96,ESE,112,0.0,0.0,38,0.00,,,0.00,,2013-04-15 06:33:00,
2013-04-15 02:42:00,55.0,30.0,28.96,ESE,112,0.0,0.0,38,0.00,,,0.00,,2013-04-15 06:42:00,
2013-04-15 02:52:00,55.0,31.0,28.96,ESE,112,0.0,0.0,39,0.00,,,0.00,,2013-04-15 06:52:00,
2013-04-15 03:03:00,54.0,30.0,28.96,ESE,112,0.0,0.0,40,0.00,,,0.00,,2013-04-15 07:03:00,
2013-04-15 03:41:00,54.0,30.0,28.96,ESE,112,0.0,0.0,40,0.00,,,0.00,,2013-04-15 07:41:00,
2013-04-15 03:42:00,53.0,30.0,28.95,ESE,112,0.0,0.0,41,0.00,,,0.00,,2013-04-15 07:42:00,
2013-04-15 03:43:00,52.0,31.0,28.96,ESE,112,0.0,0.0,44,0.00,,,0.00,,2013-04-15 07:43:00,
2013-04-15 03:53:00,51.0,32.0,28.95,West,270,0.0,0.0,48,0.00,,,0.00,,2013-04-15 07:53:00,
2013-04-15 04:03:00,51.0,33.0,28.95,NNW,337,0.0,0.0,49,0.00,,,0.00,,2013-04-15 08:03:00,
2013-04-15 04:14:00,51.0,33.0,28.95,NNW,337,0.0,0.0,49,0.00,,,0.00,,2013-04-15 08:14:00,
2013-04-15 04:22:00,51.0,33.0,28.95,NNW,337,0.0,0.0,50,0.00,,,0.00,,2013-04-15 08:22:00,
2013-04-15 04:34:00,51.0,33.0,28.95,NNW,337,0.0,0.0,50,0.00,,,0.00,,2013-04-15 08:34:00,
2013-04-15 04:42:00,51.0,33.0,28.95,NNW,337,0.0,0.0,50,0.00,,,0.00,,2013-04-15 08:42:00,
2013-04-15 04:52:00,52.0,33.0,28.95,NNW,337,0.0,0.0,49,0.00,,,0.00,,2013-04-15 08:52:00,
2013-04-15 05:03:00,51.0,33.0,28.95,NNW,337,0.0,0.0,49,0.00,,,0.00,,2013-04-15 09:03:00,
2013-04-15 05:12:00,51.0,33.0,28.95,NNW,337,0.0,0.0,49,0.00,,,0.00,,2013-04-15 09:12:00,
2013-04-15 05:23:00,50.0,32.0,28.98,NNW,337,0.0,0.0,50,0.00,,,0.00,,2013-04-15 09:23:00,
2013-04-15 05:33:00,50.0,34.0,28.98,NNW,337,0.0,0.0,54,0.00,,,0.00,,2013-04-15 09:33:00,
2013-04-15 05:43:00,50.0,34.0,28.98,NNW,337,0.0,0.0,54,0.00,,,0.00,,2013-04-15 09:43:00,
2013-04-15 05:53:00,50.0,34.0,28.98,NNW,337,0.0,0.0,54,0.00,,,0.00,,2013-04-15 09:53:00,
2013-04-15 06:03:00,49.0,34.0,28.98,NNW,337,0.0,0.0,57,0.00,,,0.00,,2013-04-15 10:03:00,
2013-04-15 06:13:00,49.0,34.0,28.98,NNW,337,0.0,0.0,57,0.00,,,0.00,,2013-04-15 10:13:00,
2013-04-15 06:23:00,49.0,34.0,28.98,NNW,337,0.0,0.0,56,0.00,,,0.00,,2013-04-15 10:23:00,
2013-04-15 06:33:00,51.0,36.0,29.01,NNW,337,0.0,0.0,57,0.00,,,0.00,,2013-04-15 10:33:00,
2013-04-15 06:42:00,51.0,36.0,29.01,NNW,337,0.0,0.0,57,0.00,,,0.00,,2013-04-15 10:42:00,
2013-04-15 06:52:00,51.0,36.0,29.01,NNW,337,0.0,0.0,57,0.00,,,0.00,,2013-04-15 10:52:00,
2013-04-15 07:03:00,51.0,36.0,29.01,NNW,337,0.0,0.0,57,0.00,,,0.00,,2013-04-15 11:03:00,
2013-04-15 07:13:00,51.0,36.0,29.01,NNW,337,0.0,0.0,57,0.00,,,0.00,,2013-04-15 11:13:00,
2013-04-15 07:23:00,51.0,36.0,29.01,NNW,337,0.0,0.0,57,0.00,,,0.00,,2013-04-15 11:23:00,
2013-04-15 07:32:00,50.0,36.0,29.01,NNW,337,0.0,0.0,58,0.00,,,0.00,,2013-04-15 11:32:00,
2013-04-15 07:43:00,50.0,36.0,29.01,NNW,337,0.0,0.0,58,0.00,,,0.00,,2013-04-15 11:43:00,
2013-04-15 07:54:00,51.0,37.0,29.01,NNW,337,0.0,0.0,59,0.00,,,0.00,,2013-04-15 11:54:00,
2013-04-15 08:04:00,53.0,39.0,29.04,NNW,337,0.0,0.0,59,0.00,,,0.00,,2013-04-15 12:04:00,
2013-04-15 08:14:00,53.0,39.0,29.04,NNW,337,0.0,0.0,59,0.00,,,0.00,,2013-04-15 12:14:00,
2013-04-15 08:23:00,58.0,41.0,29.04,NNW,337,0.0,0.0,53,0.00,,,0.00,,2013-04-15 12:23:00,
2013-04-15 08:33:00,60.0,41.0,29.05,NNW,337,0.0,0.0,49,0.00,,,0.00,,2013-04-15 12:33:00,
2013-04-15 08:43:00,60.0,41.0,29.05,NNW,337,0.0,0.0,49,0.00,,,0.00,,2013-04-15 12:43:00,
2013-04-15 08:53:00,62.0,40.0,29.05,NNW,337,0.0,0.0,45,0.00,,,0.00,,2013-04-15 12:53:00,
2013-04-15 09:04:00,64.0,39.0,29.05,SSW,202,0.0,0.0,39,0.00,,,0.00,,2013-04-15 13:04:00,
2013-04-15 09:13:00,64.0,39.0,29.05,SSW,202,0.0,0.0,39,0.00,,,0.00,,2013-04-15 13:13:00,
2013-04-15 09:23:00,65.0,39.0,29.05,SE,135,0.0,0.0,38,0.00,,,0.00,,2013-04-15 13:23:00,
2013-04-15 09:34:00,67.0,39.0,29.05,SE,135,0.0,0.0,36,0.00,,,0.00,,2013-04-15 13:34:00,
2013-04-15 09:43:00,67.0,39.0,29.05,SE,135,0.0,0.0,36,0.00,,,0.00,,2013-04-15 13:43:00,
2013-04-15 09:53:00,67.0,38.0,29.05,SSE,157,0.0,1.0,35,0.00,,,0.00,,2013-04-15 13:53:00,
2013-04-15 10:05:00,68.0,39.0,29.05,SSE,157,0.0,1.0,34,0.00,,,0.00,,2013-04-15 14:05:00,
2013-04-15 10:13:00,68.0,39.0,29.05,SSE,157,0.0,1.0,34,0.00,,,0.00,,2013-04-15 14:13:00,
2013-04-15 10:23:00,68.0,39.0,29.02,SSE,157,0.0,1.0,35,0.00,,,0.00,,2013-04-15 14:23:00,
2013-04-15 10:34:00,68.0,39.0,29.05,South,186,8.0,15.0,34,0.00,,,0.00,,2013-04-15 14:34:00,
2013-04-15 10:44:00,68.0,39.0,29.05,South,186,8.0,15.0,34,0.00,,,0.00,,2013-04-15 14:44:00,
2013-04-15 10:54:00,68.0,39.0,29.05,South,176,7.0,13.0,35,0.00,,,0.00,,2013-04-15 14:54:00,
2013-04-15 11:04:00,69.0,40.0,29.05,SSE,167,6.0,13.0,35,0.00,,,0.00,,2013-04-15 15:04:00,
2013-04-15 11:13:00,69.0,40.0,29.05,SSE,167,6.0,13.0,35,0.00,,,0.00,,2013-04-15 15:13:00,
2013-04-15 11:24:00,68.0,39.0,29.05,SW,220,6.0,13.0,34,0.00,,,0.00,,2013-04-15 15:24:00,
2013-04-15 11:35:00,68.0,39.0,29.05,SSW,199,7.0,17.0,35,0.00,,,0.00,,2013-04-15 15:35:00,
2013-04-15 11:44:00,68.0,39.0,29.05,SSW,199,7.0,17.0,35,0.00,,,0.00,,2013-04-15 15:44:00,
2013-04-15 11:55:00,69.0,40.0,29.05,SSW,212,6.0,13.0,35,0.00,,,0.00,,2013-04-15 15:55:00,
2013-04-15 12:05:00,67.0,41.0,29.05,SW,219,6.0,12.0,39,0.00,,,0.00,,2013-04-15 16:05:00,
2013-04-15 12:25:00,66.0,43.0,29.05,SSW,208,5.0,13.0,43,0.00,,,0.00,,2013-04-15 16:25:00,
2013-04-15 12:33:00,66.0,43.0,29.05,SW,220,5.0,10.0,43,0.00,,,0.00,,2013-04-15 16:33:00,
2013-04-15 12:44:00,66.0,43.0,29.05,SW,220,5.0,10.0,43,0.00,,,0.00,,2013-04-15 16:44:00,
2013-04-15 12:54:00,68.0,42.0,29.05,South,172,6.0,10.0,39,0.00,,,0.00,,2013-04-15 16:54:00,
2013-04-15 13:04:00,68.0,41.0,29.05,South,190,7.0,13.0,38,0.00,,,0.00,,2013-04-15 17:04:00,
2013-04-15 13:15:00,68.0,41.0,29.05,South,190,7.0,13.0,38,0.00,,,0.00,,2013-04-15 17:15:00,
2013-04-15 13:22:00,71.0,42.0,29.05,SSE,161,5.0,9.0,35,0.00,,,0.00,,2013-04-15 17:22:00,
2013-04-15 13:33:00,71.0,42.0,29.05,South,180,6.0,10.0,35,0.00,,,0.00,,2013-04-15 17:33:00,
2013-04-15 13:43:00,71.0,42.0,29.05,South,180,6.0,10.0,35,0.00,,,0.00,,2013-04-15 17:43:00,
2013-04-15 13:53:00,69.0,42.0,29.05,SSW,199,4.0,11.0,38,0.00,,,0.00,,2013-04-15 17:53:00,
2013-04-15 14:03:00,69.0,42.0,29.05,South,180,6.0,9.0,38,0.00,,,0.00,,2013-04-15 18:03:00,
2013-04-15 14:13:00,69.0,42.0,29.05,South,180,6.0,9.0,38,0.00,,,0.00,,2013-04-15 18:13:00,
2013-04-15 14:24:00,68.0,43.0,29.05,South,169,4.0,8.0,40,0.00,,,0.00,,2013-04-15 18:24:00,
2013-04-15 14:33:00,67.0,43.0,29.05,South,181,4.0,9.0,42,0.00,,,0.00,,2013-04-15 18:33:00,
2013-04-15 14:42:00,67.0,43.0,29.05,South,181,4.0,9.0,42,0.00,,,0.00,,2013-04-15 18:42:00,
2013-04-15 14:52:00,67.0,44.0,29.05,SSW,208,5.0,9.0,43,0.00,,,0.00,,2013-04-15 18:52:00,
2013-04-15 15:02:00,69.0,44.0,29.05,South,177,6.0,10.0,40,0.00,,,0.00,,2013-04-15 19:02:00,
2013-04-15 15:12:00,69.0,44.0,29.05,South,177,6.0,10.0,40,0.00,,,0.00,,2013-04-15 19:12:00,
2013-04-15 15:22:00,71.0,44.0,29.05,South,175,5.0,9.0,38,0.00,,,0.00,,2013-04-15 19:22:00,
2013-04-15 15:38:00,70.0,43.0,29.05,SSE,156,5.0,11.0,37,0.00,,,0.00,,2013-04-15 19:38:00,
2013-04-15 15:54:00,70.0,43.0,29.05,SSE,156,5.0,11.0,37,0.00,,,0.00,,2013-04-15 19:54:00,
2013-04-15 15:59:00,69.0,43.0,29.05,South,171,5.0,13.0,39,0.00,,,0.00,,2013-04-15 19:59:00,
2013-04-15 16:02:00,68.0,43.0,29.02,SSE,164,5.0,8.0,41,0.00,,,0.00,,2013-04-15 20:02:00,
2013-04-15 16:11:00,68.0,43.0,29.02,SSE,164,5.0,8.0,41,0.00,,,0.00,,2013-04-15 20:11:00,
2013-04-15 16:22:00,67.0,44.0,29.01,SSE,162,3.0,9.0,44,0.00,,,0.00,,2013-04-15 20:22:00,
2013-04-15 16:32:00,67.0,44.0,29.01,South,179,4.0,9.0,44,0.00,,,0.00,,2013-04-15 20:32:00,
2013-04-15 16:42:00,67.0,44.0,29.01,South,179,4.0,9.0,44,0.00,,,0.00,,2013-04-15 20:42:00,
2013-04-15 16:52:00,67.0,44.0,29.02,South,169,5.0,11.0,44,0.00,,,0.00,,2013-04-15 20:52:00,
2013-04-15 17:02:00,67.0,44.0,29.01,South,183,5.0,11.0,44,0.00,,,0.00,,2013-04-15 21:02:00,
2013-04-15 17:12:00,67.0,44.0,29.01,South,183,5.0,11.0,44,0.00,,,0.00,,2013-04-15 21:12:00,
2013-04-15 17:22:00,68.0,45.0,29.01,SSE,160,6.0,10.0,44,0.00,,,0.00,,2013-04-15 21:22:00,
2013-04-15 17:33:00,68.0,45.0,29.01,SSE,166,4.0,9.0,44,0.00,,,0.00,,2013-04-15 21:33:00,
2013-04-15 17:43:00,68.0,45.0,29.01,SSE,166,4.0,9.0,44,0.00,,,0.00,,2013-04-15 21:43:00,
2013-04-15 17:53:00,67.0,45.0,29.01,South,181,6.0,13.0,45,0.00,,,0.00,,2013-04-15 21:53:00,
2013-04-15 18:02:00,67.0,46.0,29.01,South,183,5.0,11.0,46,0.00,,,0.00,,2013-04-15 22:02:00,
2013-04-15 18:13:00,67.0,46.0,29.01,South,183,5.0,11.0,46,0.00,,,0.00,,2013-04-15 22:13:00,
2013-04-15 18:23:00,66.0,45.0,29.01,South,182,4.0,10.0,47,0.00,,,0.00,,2013-04-15 22:23:00,
2013-04-15 18:33:00,67.0,46.0,29.01,SSE,153,4.0,11.0,46,0.00,,,0.00,,2013-04-15 22:33:00,
2013-04-15 18:42:00,67.0,46.0,29.01,SSE,153,4.0,11.0,46,0.00,,,0.00,,2013-04-15 22:42:00,
2013-04-15 18:52:00,68.0,46.0,29.02,SSE,154,6.0,10.0,45,0.00,,,0.00,,2013-04-15 22:52:00,
2013-04-15 19:02:00,67.0,45.0,29.02,South,177,5.0,9.0,45,0.00,,,0.00,,2013-04-15 23:02:00,
2013-04-15 19:12:00,67.0,45.0,29.02,South,177,5.0,9.0,45,0.00,,,0.00,,2013-04-15 23:12:00,
2013-04-15 19:22:00,66.0,45.0,29.01,SSE,157,5.0,10.0,46,0.00,,,0.00,,2013-04-15 23:22:00,
2013-04-15 19:32:00,66.0,45.0,29.01,SSE,157,5.0,10.0,46,0.00,,,0.00,,2013-04-15 23:32:00,
2013-04-15 19:42:00,66.0,45.0,29.01,SSE,157,5.0,10.0,46,0.00,,,0.00,,2013-04-15 23:42:00,
2013-04-15 19:52:00,66.0,46.0,29.01,SSE,155,5.0,7.0,48,0.00,,,0.00,,2013-04-15 23:52:00,
2013-04-15 20:03:00,65.0,45.0,29.02,SSE,147,5.0,7.0,49,0.00,,,0.00,,2013-04-16 00:03:00,
2013-04-15 20:12:00,65.0,45.0,29.02,SSE,147,5.0,7.0,49,0.00,,,0.00,,2013-04-16 00:12:00,
2013-04-15 20:22:00,64.0,45.0,29.02,SSE,167,4.0,8.0,51,0.00,,,0.00,,2013-04-16 00:22:00,
2013-04-15 20:32:00,64.0,46.0,29.02,South,184,3.0,6.0,52,0.00,,,0.00,,2013-04-16 00:32:00,
2013-04-15 20:42:00,64.0,46.0,29.02,South,184,3.0,6.0,52,0.00,,,0.00,,2013-04-16 00:42:00,
2013-04-15 20:52:00,63.0,46.0,29.02,SSE,150,3.0,6.0,54,0.00,,,0.00,,2013-04-16 00:52:00,
2013-04-15 21:02:00,62.0,46.0,29.02,SSE,157,2.0,4.0,55,0.00,,,0.00,,2013-04-16 01:02:00,
2013-04-15 21:12:00,62.0,46.0,29.02,SSE,157,2.0,4.0,55,0.00,,,0.00,,2013-04-16 01:12:00,
2013-04-15 21:22:00,62.0,46.0,29.03,South,172,3.0,6.0,56,0.00,,,0.00,,2013-04-16 01:22:00,
2013-04-15 21:32:00,62.0,46.0,29.03,South,179,3.0,6.0,56,0.00,,,0.00,,2013-04-16 01:32:00,
2013-04-15 21:42:00,62.0,46.0,29.03,South,179,3.0,6.0,56,0.00,,,0.00,,2013-04-16 01:42:00,
2013-04-15 21:52:00,62.0,46.0,29.05,SW,219,4.0,7.0,56,0.00,,,0.00,,2013-04-16 01:52:00,
2013-04-15 22:02:00,62.0,46.0,29.05,SSE,162,3.0,6.0,56,0.00,,,0.00,,2013-04-16 02:02:00,
2013-04-15 22:12:00,62.0,46.0,29.05,SSE,162,3.0,6.0,56,0.00,,,0.00,,2013-04-16 02:12:00,
2013-04-15 22:22:00,62.0,46.0,29.05,South,179,3.0,6.0,55,0.00,,,0.00,,2013-04-16 02:22:00,
2013-04-15 22:32:00,62.0,46.0,29.05,SSE,166,3.0,5.0,55,0.00,,,0.00,,2013-04-16 02:32:00,
2013-04-15 22:42:00,62.0,46.0,29.05,SSE,166,3.0,5.0,55,0.00,,,0.00,,2013-04-16 02:42:00,
2013-04-15 22:52:00,61.0,45.0,29.05,South,169,3.0,6.0,55,0.00,,,0.00,,2013-04-16 02:52:00,
2013-04-15 23:02:00,61.0,45.0,29.05,South,170,3.0,5.0,55,0.00,,,0.00,,2013-04-16 03:02:00,
2013-04-15 23:12:00,61.0,45.0,29.05,South,170,3.0,5.0,55,0.00,,,0.00,,2013-04-16 03:12:00,
2013-04-15 23:22:00,61.0,45.0,29.05,SSE,157,3.0,6.0,56,0.00,,,0.00,,2013-04-16 03:22:00,
2013-04-15 23:33:00,61.0,45.0,29.05,SSE,162,3.0,7.0,55,0.00,,,0.00,,2013-04-16 03:33:00,
2013-04-15 23:43:00,61.0,45.0,29.05,SSE,162,3.0,7.0,55,0.00,,,0.00,,2013-04-16 03:43:00,
2013-04-15 23:52:00,61.0,45.0,29.05,South,186,3.0,6.0,55,0.00,,,0.00,,2013-04-16 03:52:00,